KC1SQ Weather Reports


time (UTC)temp
C
wind
direction
speed
KPH
gust
KPH
rain 1hr
cm
rain 24hr
cm
rain mn
cm
humidity
%
barometer
mb
20260507070132 9 5 0.0 0.0 0.00 0.64 0.08 79 1005.4
20260507065627 9 5 0.0 1.6 0.00 0.64 0.08 79 1005.5
20260507065120 9 5 0.0 1.6 0.00 0.64 0.08 79 1005.2
20260507064614 9 5 0.0 0.0 0.00 0.64 0.08 79 1005.3
20260507064108 9 5 0.0 0.0 0.00 0.64 0.08 79 1005.2
20260507063602 9 5 0.0 0.0 0.00 0.64 0.08 79 1005.2
20260507063056 9 5 0.0 0.0 0.00 0.64 0.08 79 1005.1
20260507062550 9 5 0.0 0.0 0.00 0.64 0.08 79 1004.9
20260507062310 9 5 0.0 0.0 0.00 0.64 0.08 79 1004.7
20260507061538 9 5 0.0 0.0 0.03 0.64 0.08 79 1004.9
20260507061256 9 5 0.0 0.0 0.03 0.64 0.08 79 1004.9
20260507060753 9 5 0.0 0.0 0.03 0.64 0.08 79 1005.0
20260507060026 10 5 0.0 1.6 0.03 0.64 0.08 79 1004.8
20260507055526 10 5 0.0 1.6 0.03 0.64 0.08 79 1004.8
20260507055025 10 5 0.0 1.6 0.03 0.64 0.08 79 1004.7
20260507054525 10 5 0.0 0.0 0.03 0.64 0.08 79 1004.7
20260507054026 10 5 0.0 0.0 0.03 0.64 0.08 79 1004.7
20260507053525 10 5 0.0 1.6 0.03 0.64 0.08 78 1004.7
20260507053024 10 5 0.0 1.6 0.03 0.64 0.08 78 1004.7
20260507052526 10 5 0.0 1.6 0.03 0.64 0.08 78 1004.6
20260507052252 10 5 0.0 3.2 0.03 0.64 0.08 78 1004.7
20260507051522 10 5 0.0 3.2 0.00 0.61 0.05 78 1004.7
20260507051023 10 339 0.0 0.0 0.03 0.61 0.05 78 1004.7
20260507050523 11 72 0.0 0.0 0.03 0.61 0.05 79 1004.7
20260507050024 11 322 0.0 0.0 0.05 0.61 0.05 79 1004.6
20260507045524 11 103 0.0 0.0 0.08 0.61 0.05 79 1004.5
20260507045024 11 105 0.0 0.0 0.13 0.61 0.05 78 1004.5
20260507044524 11 92 0.0 3.2 0.13 0.61 0.05 78 1004.5
20260507044024 11 48 1.6 3.2 0.13 0.61 0.05 78 1004.5
20260507043524 12 47 0.0 4.8 0.13 0.61 0.05 78 1004.5
20260507043248 12 333 0.0 4.8 0.13 0.61 0.05 78 1004.4
20260507042744 12 240 1.6 6.4 0.13 0.61 0.05 78 1004.4
20260507042022 13 240 1.6 6.4 0.13 0.61 0.05 79 1004.4
20260507041745 13 244 0.0 3.2 0.13 0.61 0.05 80 1004.3
20260507041021 13 244 0.0 1.6 0.10 0.58 0.03 79 1004.1
20260507040520 13 244 0.0 1.6 0.10 0.58 0.03 79 1004.2
20260507040247 13 244 1.6 4.8 0.08 0.56 0.00 80 1004.1
20260507035516 13 244 1.6 4.8 0.03 0.51 0.53 80 1004.1
20260507035235 13 334 1.6 4.8 0.00 0.48 0.48 80 1004.2
20260507034505 13 221 0.0 3.2 0.00 0.48 0.48 80 1004.2
20260507033958 13 220 0.0 3.2 0.00 0.48 0.48 80 1004.0
20260507033452 13 220 0.0 0.0 0.00 0.48 0.48 81 1003.7
20260507032947 13 155 0.0 0.0 0.00 0.48 0.48 81 1003.5
20260507032440 13 155 0.0 0.0 0.00 0.48 0.48 80 1003.5
20260507031934 13 155 0.0 0.0 0.00 0.48 0.48 80 1003.4
20260507031646 13 155 0.0 0.0 0.00 0.48 0.48 80 1003.4
20260507030922 13 155 0.0 0.0 0.00 0.48 0.48 80 1003.4
20260507030416 13 155 0.0 0.0 0.00 0.48 0.48 80 1003.4
20260507025917 13 155 0.0 0.0 0.00 0.48 0.48 80 1003.5
20260507025418 13 155 0.0 0.0 0.00 0.48 0.48 80 1003.3
20260507024915 13 155 0.0 0.0 0.00 0.48 0.48 80 1003.5
20260507024633 13 155 0.0 0.0 0.00 0.48 0.48 80 1003.4
20260507023914 13 155 0.0 0.0 0.00 0.48 0.48 80 1003.5
20260507023413 13 155 0.0 0.0 0.00 0.48 0.48 80 1003.5
20260507023132 13 155 0.0 0.0 0.00 0.48 0.48 80 1003.7
20260507022412 13 155 0.0 0.0 0.00 0.48 0.48 80 1003.7
20260507021910 13 155 0.0 0.0 0.00 0.48 0.48 80 1003.8
20260507021410 13 155 0.0 0.0 0.00 0.48 0.48 80 1003.8
20260507020908 13 155 0.0 0.0 0.00 0.48 0.48 80 1003.6
20260507020406 13 155 0.0 0.0 0.00 0.48 0.48 80 1003.7
20260507020126 13 155 0.0 0.0 0.00 0.48 0.48 80 1003.6
20260507015404 13 155 0.0 0.0 0.00 0.48 0.48 80 1003.8
20260507014900 13 155 0.0 0.0 0.00 0.48 0.48 80 1003.8
20260507014402 13 155 0.0 0.0 0.00 0.48 0.48 80 1003.8
20260507013858 13 155 0.0 3.2 0.00 0.48 0.48 80 1003.8
20260507013618 13 155 0.0 3.2 0.00 0.48 0.48 80 1003.8
20260507012856 13 155 0.0 0.0 0.00 0.48 0.48 80 1003.9
20260507012357 13 155 0.0 1.6 0.00 0.48 0.48 80 1004.0
20260507012120 13 155 0.0 3.2 0.00 0.48 0.48 80 1004.0
20260507011358 13 155 1.6 3.2 0.00 0.48 0.48 80 1004.0
20260507011117 13 155 1.6 3.2 0.00 0.48 0.48 79 1003.9
20260507010356 13 155 0.0 3.2 0.00 0.48 0.48 79 1004.1
20260507005859 13 155 0.0 3.2 0.00 0.48 0.48 79 1004.1
20260507005354 13 155 1.6 3.2 0.00 0.48 0.48 79 1004.2
20260507004853 13 155 1.6 4.8 0.00 0.48 0.48 79 1004.1
20260507004354 13 155 1.6 4.8 0.00 0.48 0.48 79 1004.1
20260507003854 13 155 1.6 4.8 0.00 0.48 0.48 79 1004.1
20260507003356 13 155 1.6 3.2 0.00 0.48 0.48 79 1004.1
20260507003118 13 155 1.6 3.2 0.00 0.48 0.48 79 1004.0
20260507002354 13 155 1.6 3.2 0.00 0.48 0.48 79 1004.0
20260507001852 13 155 1.6 3.2 0.00 0.48 0.48 79 1004.0
20260507001354 13 155 1.6 6.4 0.00 0.48 0.48 79 1004.0
20260507000848 13 155 1.6 6.4 0.00 0.48 0.48 79 1004.0
20260507000350 13 146 1.6 4.8 0.00 0.48 0.48 79 1004.0
20260506235848 13 146 1.6 6.4 0.00 0.48 0.48 79 1003.9
20260506235349 13 172 1.6 6.4 0.00 0.48 0.48 79 1004.0
20260506234849 13 159 0.0 3.2 0.00 0.48 0.48 79 1003.9
20260506234611 13 159 0.0 0.0 0.00 0.48 0.48 79 1004.0
20260506233846 13 159 0.0 0.0 0.00 0.48 0.48 79 1003.8
20260506233343 13 159 0.0 0.0 0.00 0.48 0.48 79 1003.8
20260506232842 13 159 0.0 0.0 0.00 0.48 0.48 79 1003.8
20260506232338 13 159 0.0 0.0 0.00 0.48 0.48 79 1003.9
20260506232057 13 142 0.0 0.0 0.00 0.48 0.48 79 1003.9
20260506231553 13 103 0.0 0.0 0.00 0.48 0.48 79 1004.0
20260506230836 14 165 0.0 0.0 0.00 0.48 0.48 79 1004.0
20260506230336 14 165 0.0 0.0 0.00 0.48 0.48 79 1003.8
20260506230055 14 165 0.0 0.0 0.00 0.48 0.48 79 1003.9
20260506225333 14 165 0.0 0.0 0.00 0.48 0.48 79 1004.1
20260506224828 14 165 0.0 0.0 0.03 0.48 0.48 79 1004.1
20260506224321 14 165 0.0 0.0 0.03 0.48 0.48 79 1004.2
20260506223815 14 132 0.0 0.0 0.03 0.48 0.48 79 1004.2
20260506223309 14 158 0.0 0.0 0.03 0.48 0.48 78 1004.3
20260506222803 14 160 0.0 0.0 0.03 0.48 0.48 78 1004.2
20260506222257 14 144 0.0 0.0 0.03 0.48 0.48 78 1004.2
20260506222234 14 144 0.0 0.0 0.03 0.48 0.48 79 1004.2
20260506221245 14 157 0.0 0.0 0.03 0.48 0.48 79 1004.4
20260506221007 14 140 0.0 0.0 0.03 0.48 0.48 78 1004.4
20260506220233 14 88 0.0 0.0 0.05 0.48 0.48 78 1004.4
20260506215726 14 151 0.0 0.0 0.05 0.48 0.48 78 1004.5
20260506215221 14 129 0.0 0.0 0.03 0.46 0.46 79 1004.5
20260506214715 15 128 0.0 0.0 0.05 0.46 0.46 79 1004.5
20260506214209 15 128 0.0 0.0 0.05 0.46 0.46 78 1004.5
20260506213703 15 192 0.0 0.0 0.05 0.46 0.46 79 1004.6
20260506213157 15 164 0.0 0.0 0.08 0.46 0.46 79 1004.6
20260506212651 15 164 0.0 0.0 0.08 0.46 0.46 79 1004.7
20260506212145 15 164 0.0 0.0 0.10 0.46 0.46 78 1004.8
20260506211638 15 163 0.0 0.0 0.10 0.46 0.46 78 1004.8
20260506211133 15 163 0.0 0.0 0.10 0.46 0.46 78 1004.8
20260506210627 15 158 0.0 0.0 0.13 0.46 0.46 78 1004.8
20260506210120 15 122 0.0 0.0 0.10 0.43 0.43 78 1004.9
20260506205615 15 121 0.0 0.0 0.10 0.43 0.43 78 1004.8
20260506205333 15 121 0.0 0.0 0.10 0.43 0.43 78 1004.9
20260506204603 15 119 0.0 0.0 0.10 0.41 0.41 78 1004.8
20260506204057 15 117 0.0 0.0 0.10 0.41 0.41 78 1004.8
20260506203551 15 252 0.0 0.0 0.08 0.38 0.41 78 1004.9
20260506203045 15 102 0.0 0.0 0.10 0.38 0.38 77 1005.0
20260506202539 15 102 0.0 0.0 0.10 0.38 0.38 77 1005.1
20260506202033 15 153 0.0 0.0 0.10 0.36 0.36 77 1005.1
20260506201527 15 153 0.0 0.0 0.13 0.36 0.36 77 1005.2
20260506201021 15 153 0.0 0.0 0.13 0.36 0.36 77 1005.2
20260506200515 15 153 0.0 0.0 0.13 0.33 0.33 77 1005.2
20260506200009 15 153 0.0 0.0 0.13 0.33 0.33 76 1005.2
20260506195504 15 153 0.0 0.0 0.15 0.33 0.33 75 1005.3
20260506194957 15 153 0.0 0.0 0.15 0.30 0.33 74 1005.2
20260506194710 15 153 0.0 0.0 0.18 0.30 0.30 73 1005.5
20260506193945 15 153 0.0 0.0 0.20 0.30 0.30 73 1005.5
20260506193439 15 153 0.0 0.0 0.23 0.30 0.30 72 1005.5
20260506193155 15 153 0.0 0.0 0.20 0.28 0.28 71 1005.7
20260506192427 15 153 0.0 0.0 0.23 0.25 0.28 71 1005.6
20260506191921 15 153 0.0 0.0 0.23 0.25 0.25 70 1005.5
20260506191415 15 153 0.0 0.0 0.23 0.23 0.23 69 1005.5
20260506190909 15 153 0.0 0.0 0.23 0.23 0.23 68 1005.6
20260506190403 15 153 0.0 0.0 0.20 0.20 0.20 67 1005.7
20260506185857 15 153 0.0 0.0 0.20 0.20 0.20 67 1005.9
20260506185616 15 159 0.0 0.0 0.18 0.18 0.18 67 1006.1
20260506185331 15 161 0.0 0.0 0.15 0.15 0.15 66 1005.7
20260506184339 16 221 0.0 0.0 0.13 0.13 0.13 66 1006.3
20260506183833 16 221 0.0 0.0 0.10 0.10 0.10 66 1005.7
20260506183327 16 220 0.0 0.0 0.08 0.08 0.08 66 1005.8
20260506182821 16 223 0.0 0.0 0.05 0.05 0.08 66 1005.8
20260506182315 16 214 0.0 0.0 0.03 0.03 0.03 66 1005.7
20260506181809 17 213 0.0 0.0 0.00 0.00 0.00 65 1005.6
20260506181303 17 213 0.0 1.6 0.00 0.00 0.00 64 1005.4
20260506180757 17 163 1.6 6.4 0.00 0.00 0.00 63 1005.4
20260506180252 17 159 1.6 6.4 0.00 0.00 0.00 63 1005.3
20260506180011 18 78 1.6 6.4 0.00 0.00 0.00 63 1005.3
20260506175240 18 77 1.6 6.4 0.00 0.00 0.00 63 1005.4
20260506174733 18 165 1.6 6.4 0.00 0.00 0.00 61 1005.4
20260506174227 18 65 1.6 4.8 0.00 0.00 0.00 62 1005.4
20260506173937 18 65 3.2 6.4 0.00 0.00 0.00 60 1005.4
20260506173215 18 65 3.2 6.4 0.00 0.00 0.00 58 1005.5
20260506172930 18 153 3.2 9.7 0.00 0.00 0.00 57 1005.6
20260506172209 18 92 3.2 9.7 0.00 0.00 0.00 57 1005.6
20260506171709 18 90 3.2 6.4 0.00 0.00 0.00 58 1005.7
20260506171209 18 90 3.2 6.4 0.00 0.00 0.00 58 1005.8
20260506170935 18 88 3.2 6.4 0.00 0.00 0.00 58 1005.9
20260506170205 18 80 1.6 9.7 0.00 0.00 0.00 58 1006.1
20260506165705 18 153 1.6 9.7 0.00 0.00 0.00 58 1006.3
20260506165658 18 94 0.0 4.8 0.00 0.00 0.00 57 1006.4
20260506164701 18 86 1.6 4.8 0.00 0.00 0.00 57 1006.4
20260506164204 18 95 3.2 4.8 0.00 0.00 0.00 57 1006.5
20260506163702 18 81 3.2 4.8 0.00 0.00 0.00 57 1006.5
20260506163202 18 82 3.2 4.8 0.00 0.00 0.00 57 1006.7
20260506162702 18 77 1.6 6.4 0.00 0.00 0.00 57 1006.8
20260506162425 18 91 1.6 6.4 0.00 0.00 0.00 57 1007.0
20260506161701 18 168 1.6 4.8 0.00 0.00 0.00 58 1007.1
20260506161200 18 120 1.6 4.8 0.00 0.00 0.00 58 1007.3
20260506160701 18 115 1.6 4.8 0.00 0.00 0.00 58 1007.3
20260506160159 18 115 0.0 4.8 0.00 0.00 0.00 59 1007.4
20260506155659 17 115 0.0 3.2 0.00 0.00 0.00 59 1007.5
20260506155153 17 94 0.0 0.0 0.00 0.00 0.00 59 1007.5
20260506154652 17 134 0.0 0.0 0.00 0.00 0.00 59 1007.7
20260506154149 17 153 0.0 0.0 0.00 0.00 0.00 59 1007.7
20260506153650 17 153 0.0 0.0 0.00 0.00 0.00 58 1007.7
20260506153413 17 171 0.0 0.0 0.00 0.00 0.00 58 1007.7
20260506152651 18 96 0.0 0.0 0.00 0.00 0.00 57 1007.7
20260506152150 18 117 0.0 0.0 0.00 0.00 0.00 56 1007.7
20260506151649 18 88 0.0 0.0 0.00 0.00 0.00 55 1007.7
20260506151150 19 57 0.0 0.0 0.00 0.00 0.00 55 1007.8
20260506150651 19 213 0.0 0.0 0.00 0.00 0.00 56 1007.7
20260506150147 19 174 0.0 0.0 0.00 0.00 0.00 56 1007.6
20260506145646 19 194 0.0 0.0 0.00 0.00 0.00 56 1007.7
20260506145146 19 246 0.0 0.0 0.00 0.00 0.00 56 1007.5
20260506144908 19 229 0.0 0.0 0.00 0.00 0.00 56 1007.5
20260506144147 18 242 0.0 0.0 0.00 0.00 0.00 56 1007.5
20260506143645 18 169 0.0 0.0 0.00 0.00 0.00 57 1007.4
20260506143146 18 160 0.0 0.0 0.00 0.00 0.00 57 1007.3
20260506142646 18 160 0.0 0.0 0.00 0.00 0.00 57 1007.2
20260506142148 18 160 0.0 0.0 0.00 0.00 0.00 57 1007.3
20260506141643 18 160 0.0 0.0 0.00 0.00 0.00 57 1007.4
20260506141407 18 227 0.0 0.0 0.00 0.00 0.00 57 1007.5
20260506140641 18 227 0.0 0.0 0.00 0.00 0.00 58 1007.6
20260506140143 18 272 0.0 0.0 0.00 0.00 0.00 58 1007.7
20260506135643 18 214 0.0 0.0 0.00 0.00 0.00 58 1007.9
20260506135142 17 229 0.0 0.0 0.00 0.00 0.00 58 1007.9
20260506134642 17 234 0.0 0.0 0.00 0.00 0.00 59 1008.0
20260506134142 17 307 0.0 0.0 0.00 0.00 0.00 59 1008.1
20260506133643 17 232 0.0 0.0 0.00 0.00 0.00 60 1007.9
20260506133136 16 232 0.0 0.0 0.00 0.00 0.00 60 1008.0
20260506132630 16 80 0.0 0.0 0.00 0.00 0.00 62 1008.0
20260506132124 16 78 0.0 0.0 0.00 0.00 0.00 61 1008.1
20260506131618 16 78 0.0 0.0 0.00 0.00 0.00 61 1008.1
20260506131112 16 78 0.0 0.0 0.00 0.00 0.00 61 1007.9
20260506130606 15 78 0.0 0.0 0.00 0.00 0.00 61 1007.9
20260506130100 15 78 0.0 0.0 0.00 0.00 0.00 61 1007.9
20260506125554 15 78 0.0 0.0 0.00 0.00 0.00 61 1008.0
20260506125049 15 78 0.0 0.0 0.00 0.00 0.00 60 1008.0
20260506124542 15 78 0.0 0.0 0.00 0.00 0.00 60 1008.1
20260506124036 15 78 0.0 0.0 0.00 0.00 0.00 60 1008.1
20260506123530 15 108 0.0 0.0 0.00 0.00 0.00 61 1008.0
20260506123024 15 108 0.0 0.0 0.00 0.00 0.00 61 1008.2
20260506122518 15 108 0.0 0.0 0.00 0.00 0.00 61 1008.2
20260506122012 15 108 0.0 0.0 0.00 0.00 0.00 60 1008.2
20260506121506 15 108 0.0 0.0 0.00 0.00 0.00 61 1008.2
20260506121000 14 238 0.0 0.0 0.00 0.00 0.00 63 1008.2
20260506120454 14 238 0.0 0.0 0.00 0.00 0.00 62 1008.4
20260506115948 14 238 0.0 0.0 0.00 0.00 0.00 61 1008.3
20260506115442 14 238 0.0 0.0 0.00 0.00 0.00 62 1008.3
20260506114936 14 238 0.0 0.0 0.00 0.00 0.00 64 1008.2
20260506114430 13 238 0.0 0.0 0.00 0.00 0.00 65 1008.2
20260506113925 13 238 0.0 0.0 0.00 0.00 0.00 65 1008.4
20260506113418 13 355 0.0 0.0 0.00 0.00 0.00 66 1008.4
20260506112912 13 144 0.0 0.0 0.00 0.00 0.00 65 1008.5
20260506112635 13 144 0.0 0.0 0.00 0.00 0.00 65 1008.4
20260506111901 12 144 0.0 0.0 0.00 0.00 0.00 64 1009.0
20260506111354 12 144 0.0 0.0 0.00 0.00 0.00 64 1008.6
20260506110848 12 144 0.0 0.0 0.00 0.00 0.00 64 1008.7
20260506110342 12 144 0.0 0.0 0.00 0.00 0.00 64 1008.7
20260506105922 12 144 0.0 0.0 0.00 0.00 0.00 64 1008.9
20260506104824 12 144 0.0 0.0 0.00 0.00 0.00 65 1008.7
20260506104538 12 144 0.0 0.0 0.00 0.00 0.00 66 1008.5
20260506103812 12 144 0.0 0.0 0.00 0.00 0.00 66 1008.5
20260506103306 12 144 0.0 0.0 0.00 0.00 0.00 66 1008.4
20260506102800 11 144 0.0 0.0 0.00 0.00 0.00 66 1008.5
20260506102253 12 144 0.0 0.0 0.00 0.00 0.00 66 1008.5
20260506101748 11 144 0.0 0.0 0.00 0.00 0.00 66 1008.3
20260506101242 11 144 0.0 0.0 0.00 0.00 0.00 65 1008.2
20260506100736 11 144 0.0 0.0 0.00 0.00 0.00 65 1008.1
20260506100231 11 144 0.0 0.0 0.00 0.00 0.00 65 1008.3
20260506095724 11 144 0.0 0.0 0.00 0.00 0.00 66 1008.3
20260506095219 11 144 0.0 0.0 0.00 0.00 0.00 65 1008.1
20260506094713 11 144 0.0 0.0 0.00 0.00 0.00 65 1008.1
20260506094206 12 144 0.0 0.0 0.00 0.00 0.00 65 1008.2
20260506093701 12 144 0.0 0.0 0.00 0.00 0.00 65 1008.2
20260506093153 12 144 0.0 0.0 0.00 0.00 0.00 64 1008.2
20260506092916 12 144 0.0 0.0 0.00 0.00 0.00 64 1008.2
20260506092142 12 144 0.0 0.0 0.00 0.00 0.00 64 1008.2
20260506091637 12 144 0.0 0.0 0.00 0.00 0.00 64 1008.2
20260506091130 12 144 0.0 0.0 0.00 0.00 0.00 64 1008.4
20260506090625 12 144 0.0 0.0 0.00 0.00 0.00 64 1008.2
20260506090118 12 144 0.0 0.0 0.00 0.00 0.00 64 1008.1
20260506085612 13 144 0.0 0.0 0.00 0.00 0.00 64 1008.1
20260506085106 13 144 0.0 0.0 0.00 0.00 0.00 64 1008.1
20260506084600 13 144 0.0 0.0 0.00 0.00 0.00 64 1008.1
20260506084054 13 144 0.0 0.0 0.00 0.00 0.00 64 1008.0
20260506083548 13 144 0.0 0.0 0.00 0.00 0.00 64 1007.7
20260506083041 13 144 0.0 0.0 0.00 0.00 0.00 63 1007.9
20260506082536 13 144 0.0 0.0 0.00 0.00 0.00 64 1007.8
20260506082030 13 144 0.0 0.0 0.00 0.00 0.00 64 1007.7
20260506081524 13 144 0.0 0.0 0.00 0.00 0.00 64 1007.7
20260506081018 13 144 0.0 0.0 0.00 0.00 0.00 63 1007.6
20260506080512 13 144 0.0 0.0 0.00 0.00 0.00 63 1007.6
20260506072930 13 144 0.0 0.0 0.00 0.00 0.00 63 1007.8
20260506072425 13 144 0.0 0.0 0.00 0.00 0.00 63 1007.7
20260506071925 13 144 0.0 0.0 0.00 0.00 0.00 63 1007.7
20260506071425 13 144 0.0 0.0 0.00 0.00 0.00 63 1007.6
20260506070926 13 144 0.0 0.0 0.00 0.00 0.00 63 1007.5